TimeEST,TemperatureF,Dew PointF,Humidity,Sea Level PressureIn,VisibilityMPH,Wind Direction,Wind SpeedMPH,Gust SpeedMPH,PrecipitationIn,Events,Conditions,WindDirDegrees,DateUTC
12:15 AM,48.2,48.2,100,30.30,10.0,Calm,Calm,-,N/A,,Clear,0,2012-12-02 05:15:00
12:35 AM,48.2,48.2,100,30.30,10.0,Calm,Calm,-,N/A,,Clear,0,2012-12-02 05:35:00
12:55 AM,46.4,46.4,100,30.30,10.0,Calm,Calm,-,N/A,,Clear,0,2012-12-02 05:55:00
1:15 AM,46.4,46.4,100,30.30,10.0,Calm,Calm,-,N/A,,Clear,0,2012-12-02 06:15:00
1:35 AM,46.4,46.4,100,30.30,10.0,Calm,Calm,-,N/A,,Scattered Clouds,0,2012-12-02 06:35:00
1:55 AM,46.4,46.4,100,30.30,10.0,Calm,Calm,-,N/A,,Scattered Clouds,0,2012-12-02 06:55:00
2:15 AM,46.4,46.4,100,30.30,10.0,Calm,Calm,-,N/A,,Scattered Clouds,0,2012-12-02 07:15:00
2:35 AM,46.4,46.4,100,30.30,10.0,Calm,Calm,-,N/A,,Scattered Clouds,0,2012-12-02 07:35:00
2:55 AM,46.4,46.4,100,30.30,10.0,Calm,Calm,-,N/A,,Mostly Cloudy,0,2012-12-02 07:55:00
3:15 AM,48.2,48.2,100,30.30,10.0,Calm,Calm,-,N/A,,Mostly Cloudy,0,2012-12-02 08:15:00
3:35 AM,48.2,48.2,100,30.30,10.0,Calm,Calm,-,N/A,,Scattered Clouds,0,2012-12-02 08:35:00
3:55 AM,48.2,48.2,100,30.30,10.0,Calm,Calm,-,N/A,,Mostly Cloudy,0,2012-12-02 08:55:00
4:15 AM,48.2,48.2,100,30.30,10.0,Calm,Calm,-,N/A,,Scattered Clouds,0,2012-12-02 09:15:00
4:35 AM,46.4,46.4,100,30.30,10.0,Calm,Calm,-,N/A,,Scattered Clouds,0,2012-12-02 09:35:00
4:55 AM,46.4,46.4,100,30.30,10.0,Calm,Calm,-,N/A,,Clear,0,2012-12-02 09:55:00
5:15 AM,46.4,46.4,100,30.31,7.0,Calm,Calm,-,N/A,,Clear,0,2012-12-02 10:15:00
5:35 AM,46.4,46.4,100,30.31,10.0,Calm,Calm,-,N/A,,Clear,0,2012-12-02 10:35:00
5:55 AM,46.4,46.4,100,30.32,10.0,Calm,Calm,-,N/A,,Clear,0,2012-12-02 10:55:00
6:15 AM,46.4,46.4,100,30.33,10.0,Calm,Calm,-,N/A,,Mostly Cloudy,0,2012-12-02 11:15:00
6:35 AM,48.2,48.2,100,30.33,10.0,Calm,Calm,-,N/A,,Mostly Cloudy,0,2012-12-02 11:35:00
6:55 AM,48.2,48.2,100,30.33,10.0,Calm,Calm,-,N/A,,Mostly Cloudy,0,2012-12-02 11:55:00
7:15 AM,48.2,48.2,100,30.33,10.0,Calm,Calm,-,N/A,,Mostly Cloudy,0,2012-12-02 12:15:00
7:35 AM,50.0,50.0,100,30.33,7.0,Calm,Calm,-,N/A,,Mostly Cloudy,0,2012-12-02 12:35:00
7:55 AM,50.0,50.0,100,30.34,10.0,Calm,Calm,-,N/A,,Scattered Clouds,0,2012-12-02 12:55:00
8:15 AM,51.8,51.8,100,30.34,7.0,Calm,Calm,-,N/A,,Scattered Clouds,0,2012-12-02 13:15:00
8:35 AM,53.6,53.6,100,30.35,5.0,Calm,Calm,-,N/A,,Scattered Clouds,0,2012-12-02 13:35:00
8:55 AM,55.4,55.4,100,30.35,7.0,Calm,Calm,-,N/A,,Scattered Clouds,0,2012-12-02 13:55:00
9:15 AM,59.0,57.2,94,30.35,7.0,Calm,Calm,-,N/A,,Scattered Clouds,0,2012-12-02 14:15:00
9:35 AM,60.8,59.0,94,30.36,10.0,Calm,Calm,-,N/A,,Scattered Clouds,0,2012-12-02 14:35:00
9:55 AM,64.4,60.8,88,30.36,10.0,Calm,Calm,-,N/A,,Scattered Clouds,0,2012-12-02 14:55:00
10:15 AM,64.4,60.8,88,30.37,10.0,Calm,Calm,-,N/A,,Scattered Clouds,0,2012-12-02 15:15:00
10:35 AM,68.0,60.8,78,30.37,10.0,Calm,Calm,-,N/A,,Scattered Clouds,0,2012-12-02 15:35:00
10:55 AM,69.8,62.6,78,30.36,10.0,SSW,3.5,-,N/A,,Scattered Clouds,210,2012-12-02 15:55:00
11:15 AM,71.6,62.6,73,30.35,10.0,Calm,Calm,-,N/A,,Scattered Clouds,0,2012-12-02 16:15:00
11:35 AM,71.6,62.6,73,30.35,10.0,SSW,4.6,-,N/A,,Scattered Clouds,210,2012-12-02 16:35:00
11:55 AM,73.4,62.6,69,30.33,10.0,SW,4.6,-,N/A,,Scattered Clouds,220,2012-12-02 16:55:00
12:15 PM,73.4,62.6,69,30.33,10.0,SSE,3.5,-,N/A,,Mostly Cloudy,160,2012-12-02 17:15:00
12:35 PM,77.0,62.6,61,30.31,10.0,SSW,8.1,-,N/A,,Overcast,200,2012-12-02 17:35:00
12:55 PM,75.2,62.6,65,30.30,10.0,SW,5.8,-,N/A,,Mostly Cloudy,220,2012-12-02 17:55:00
1:15 PM,75.2,62.6,65,30.29,10.0,WSW,8.1,-,N/A,,Mostly Cloudy,240,2012-12-02 18:15:00
1:35 PM,75.2,60.8,61,30.29,10.0,West,3.5,-,N/A,,Mostly Cloudy,260,2012-12-02 18:35:00
1:55 PM,75.2,60.8,61,30.28,10.0,Calm,Calm,-,N/A,,Overcast,0,2012-12-02 18:55:00
2:15 PM,78.8,59.0,51,30.27,10.0,SSW,4.6,-,N/A,,Mostly Cloudy,210,2012-12-02 19:15:00
2:35 PM,78.8,59.0,51,30.26,10.0,SW,3.5,-,N/A,,Scattered Clouds,230,2012-12-02 19:35:00
2:55 PM,77.0,59.0,54,30.25,10.0,South,5.8,-,N/A,,Clear,180,2012-12-02 19:55:00
3:15 PM,75.2,57.2,53,30.25,10.0,SSE,3.5,-,N/A,,Clear,150,2012-12-02 20:15:00
3:35 PM,77.0,59.0,54,30.25,10.0,SE,4.6,-,N/A,,Scattered Clouds,130,2012-12-02 20:35:00
4:15 PM,77.0,59.0,54,30.24,10.0,SSE,3.5,-,N/A,,Scattered Clouds,150,2012-12-02 21:15:00
4:35 PM,78.8,59.0,51,30.25,10.0,South,3.5,-,N/A,,Overcast,170,2012-12-02 21:35:00
4:55 PM,77.0,59.0,54,30.25,10.0,SW,5.8,-,N/A,,Mostly Cloudy,230,2012-12-02 21:55:00
5:15 PM,73.4,59.0,61,30.25,10.0,Calm,Calm,-,N/A,,Scattered Clouds,0,2012-12-02 22:15:00
5:35 PM,71.6,59.0,64,30.25,10.0,Calm,Calm,-,N/A,,Clear,0,2012-12-02 22:35:00
5:55 PM,66.2,60.8,83,30.25,10.0,Calm,Calm,-,N/A,,Clear,0,2012-12-02 22:55:00
6:15 PM,64.4,59.0,83,30.26,10.0,Calm,Calm,-,N/A,,Clear,0,2012-12-02 23:15:00
6:35 PM,62.6,59.0,88,30.26,10.0,Calm,Calm,-,N/A,,Clear,0,2012-12-02 23:35:00
6:55 PM,62.6,59.0,88,30.26,10.0,Calm,Calm,-,N/A,,Clear,0,2012-12-02 23:55:00
7:15 PM,60.8,59.0,94,30.26,10.0,Calm,Calm,-,N/A,,Clear,0,2012-12-03 00:15:00
7:35 PM,59.0,59.0,100,30.26,10.0,Calm,Calm,-,N/A,,Clear,0,2012-12-03 00:35:00
7:55 PM,59.0,57.2,94,30.26,10.0,Calm,Calm,-,N/A,,Clear,0,2012-12-03 00:55:00
8:15 PM,57.2,55.4,94,30.27,10.0,Calm,Calm,-,N/A,,Clear,0,2012-12-03 01:15:00
8:55 PM,55.4,55.4,100,30.27,10.0,Calm,Calm,-,N/A,,Clear,0,2012-12-03 01:55:00
9:15 PM,55.4,55.4,100,30.27,10.0,Calm,Calm,-,N/A,,Clear,0,2012-12-03 02:15:00
9:35 PM,55.4,55.4,100,30.27,10.0,Calm,Calm,-,N/A,,Clear,0,2012-12-03 02:35:00
9:55 PM,55.4,55.4,100,30.27,10.0,Calm,Calm,-,N/A,,Clear,0,2012-12-03 02:55:00
10:15 PM,53.6,53.6,100,30.27,10.0,Calm,Calm,-,N/A,,Clear,0,2012-12-03 03:15:00
10:35 PM,53.6,53.6,100,30.27,10.0,Calm,Calm,-,N/A,,Clear,0,2012-12-03 03:35:00
10:55 PM,53.6,53.6,100,30.27,10.0,Calm,Calm,-,N/A,,Clear,0,2012-12-03 03:55:00
11:15 PM,53.6,53.6,100,30.27,10.0,Calm,Calm,-,N/A,,Scattered Clouds,0,2012-12-03 04:15:00
11:35 PM,53.6,53.6,100,30.27,10.0,Calm,Calm,-,N/A,,Scattered Clouds,0,2012-12-03 04:35:00
11:55 PM,51.8,51.8,100,30.27,10.0,Calm,Calm,-,N/A,,Scattered Clouds,0,2012-12-03 04:55:00